Location: Poughquag
(41.6090°N, 73.6820°W)
Time: 20:21:23
(UTC-05:00)

Hubble Space Telescope - Pass Details

Date: 25 November 2019
Orbit: 536 x 540 km, 28.5° (Epoch: 11 December)

Event Time Altitude Azimuth Distance (km) Brightness Sun altitude
Rises 18:23:49 0° 242° (WSW) 2,668 5.6 -21.3°
Reaches altitude 10° 18:27:58 10° 202° (SSW) 1,777 3.8 -22.1°
Maximum altitude 18:28:45 11° 191° (S) 1,747 3.6 -22.2°
Drops below altitude 10° 18:29:33 10° 180° (S) 1,777 3.5 -22.4°
Enters shadow 18:30:27 - 168° (SSE) 1,879 3.5 -22.5°
